This demonstration page uses our WeatherBlox Daily Observations layout. Learn more.

Left ArrowRight Arrow

39.92423, -83.80882

Hourly Observations for February 14, 2021

Temp ( °F °C ) Dew Point ( °F °C ) Humidity (%) Winds ( mph kmh ) Pressure ( in mb ) Visibility ( mi km ) Precip ( " mm )
12:56 am 00:56 Cloudy 21 -6.1 20 -6.7 96 96 N 9 15 30.24 1024 10 16 0.00 0.00
1:56 am 01:56 Cloudy 20 -6.7 20 -6.7 100 100 NNW 9 15 30.26 1025 8 13 0.00 0.00
2:56 am 02:56 Cloudy 20 -6.7 19 -7.2 96 96 N 6 9 30.28 1025 10 16 0.00 0.00
3:17 am 03:17 Cloudy 19 -7 19 -7 100 100 NNW 6 9 30.32 1027 9 14 0.00 0.00
3:56 am 03:56 Cloudy 20 -6.7 19 -7.2 96 96 NNW 7 11 30.28 1026 9 14 0.00 0.00
4:56 am 04:56 Cloudy 20 -6.7 19 -7.2 96 96 NNW 7 11 30.30 1026 9 14 0.00 0.00
5:03 am 05:03 Cloudy 19 -7 19 -7 100 100 NNW 7 11 30.34 1027 9 14 0.00 0.00
5:14 am 05:14 Cloudy with Light Snow 19 -7 19 -7 100 100 NNW 7 11 30.35 1028 8 13 0.00 0.00
5:22 am 05:22 Cloudy with Light Snow 19 -7 19 -7 100 100 NNW 6 9 30.35 1028 7 11 0.00 0.00
5:31 am 05:31 Cloudy with Light Snow 19 -7 19 -7 100 100 NNW 6 9 30.36 1028 7 11 0.00 0.00
5:56 am 05:56 Cloudy with Light Snow 20 -6.7 19 -7.2 96 96 NNW 7 11 30.33 1027 6 10 0.00 0.00
6:56 am 06:56 Cloudy with Light Snow 20 -6.7 17 -8.3 89 89 N 7 11 30.33 1027 7 11 0.00 0.00
7:54 am 07:54 Cloudy with Light Snow 19 -7 18 -8 93 93 NNE 9 15 30.38 1029 8 13 0.00 0.00
7:56 am 07:56 Cloudy with Light Snow 19 -7.2 17 -8.3 92 92 NNE 10 17 30.35 1028 8 13 0.00 0.00
8:56 am 08:56 Cloudy 19 -7.2 17 -8.3 92 92 N 9 15 30.36 1028 7 11 0.00 0.00
9:56 am 09:56 Cloudy 20 -6.7 17 -8.3 89 89 ENE 9 15 30.36 1028 9 14 0.00 0.00
10:54 am 10:54 Cloudy 21 -6 16 -9 80 80 NNE 12 19 30.38 1029 9 14 0.00 0.00
10:56 am 10:56 Cloudy 21 -6.1 16 -8.9 81 81 NNE 10 17 30.35 1028 10 16 0.00 0.00
11:56 am 11:56 Cloudy 22 -5.6 17 -8.3 82 82 NNE 10 17 30.35 1028 10 16 0.00 0.00
12:56 pm 12:56 Cloudy 24 -4.4 16 -8.9 71 71 NNE 12 19 30.32 1027 10 16 0.00 0.00
1:56 pm 13:56 Cloudy 24 -4.4 17 -8.3 75 75 NE 9 15 30.30 1026 10 16 0.00 0.00
2:56 pm 14:56 Cloudy 23 -5 16 -8.9 74 74 NE 8 13 30.32 1027 10 16 0.00 0.00
3:56 pm 15:56 Mostly Cloudy 23 -5 16 -8.9 74 74 NNE 8 13 30.32 1027 10 16 0.00 0.00
4:30 pm 16:30 Partly Cloudy 21 -6 16 -9 80 80 NE 10 17 30.35 1028 10 16 0.00 0.00
4:56 pm 16:56 Mostly Sunny 22 -5.6 16 -8.9 78 78 N 10 17 30.32 1027 10 16 0.00 0.00
5:56 pm 17:56 Partly Cloudy 20 -6.7 16 -8.9 85 85 N 12 19 30.31 1027 9 14 0.00 0.00
6:56 pm 18:56 Clear 19 -7.2 15 -9.4 84 84 NNE 13 20 30.31 1027 10 16 0.00 0.00
7:56 pm 19:56 Mostly Cloudy 19 -7.2 15 -9.4 84 84 N 12 19 30.35 1028 10 16 0.00 0.00
8:56 pm 20:56 Cloudy 19 -7.2 14 -10 81 81 N 12 19 30.32 1027 10 16 0.00 0.00
9:56 pm 21:56 Cloudy 18 -7.8 14 -10 84 84 N 10 17 30.32 1027 10 16 0.00 0.00
10:56 pm 22:56 Cloudy 18 -7.8 13 -10.6 81 81 N 12 19 30.32 1027 10 16 0.00 0.00
11:56 pm 23:56 Cloudy 18 -7.8 13 -10.6 81 81 N 12 19 30.29 1026 10 16 0.00 0.00

Powered by AerisWeather